Regional Weather Roundup
Issued by NWS

Home | Current Version | Previous Version | Text Only | Print | Product List | Glossary On
Versions: 1 2 3 4 5 6 7 8 9 10 11 12 13 14 15 16 17 18 19 20 21 22 23 24 25 26 27 28 29 30 31 32 33 34 35 36 37 38 39 40 41 42 43 44 45 46 47 48 49 50
000
ASUS45 KABQ 020110
RWRNM
WEATHER ROUNDUP FOR NEW MEXICO
NATIONAL WEATHER SERVICE ALBUQUERQUE NM
600 PM MST SUN FEB 01 2015

NOTE: "FAIR" MEANS FEW OR NO CLOUDS BELOW 12,000 FEET AGL WITH NO
       SIGNIFICANT WEATHER OR OBSTRUCTIONS TO VISION.

      THIS PRODUCT IS RELEASED AS TWO VERSIONS.  ONE VERSION NEAR
      THE TOP OF THE HOUR CONTAINING PRELIMINARY DATA FROM ALBUQUERQUE
      AND OTHER STATIONS.  A FINAL VERSION WITH ADDITIONAL DATA IS
      ISSUED ABOUT 10 MINUTES AFTER THE HOUR.

NMZ501-503-504-510>518-020200-
NORTHWEST PLATEAU/NORTHCENTRAL MOUNTAINS

CITY           SKY/WX    TMP DP  RH WIND       PRES   REMARKS
FARMINGTON     CLEAR     42  26  53 W15       30.12R
LOS ALAMOS     CLEAR     34  27  75 CALM      30.14R
SANTA FE       CLEAR     34  26  72 NE6       30.11R WCI  29
TAOS           PTCLDY    34  19  55 CALM      30.13R
ANGEL FIRE     FAIR      28  20  69 W14       30.10R WCI  17

$$
NMZ402-403-502-505>509-020200-
WESTCENTRAL MOUNTAINS/SOUTHWEST MOUNTAINS

CITY           SKY/WX    TMP DP  RH WIND       PRES   REMARKS
GALLUP         CLEAR     37  25  61 CALM      30.17R
GRANTS         PTCLDY    33  17  51 W3        30.18R
SILVER CITY    PTCLDY    48  41  76 SW5       30.14R

$$
NMZ407-409-411-412-020200-
SOUTHERN DESERTS

CITY           SKY/WX    TMP DP  RH WIND       PRES   REMARKS
LORDSBURG      FAIR      50  41  71 W3        30.10R
DEMING         CLEAR     53  39  59 S3        30.10R
LAS CRUCES     CLEAR     52  37  56 CALM      30.11R
HOLLOMAN AFB   CLEAR     53  36  53 CALM      30.09R
ALAMOGORDO     CLEAR     50  39  66 S5        30.11R
T OR C         FAIR      51  35  54 E3        30.10R

$$
NMZ519>523-020200-
CENTRAL VALLEYS/CENTRAL HIGHLANDS

CITY           SKY/WX    TMP DP  RH WIND       PRES   REMARKS
ALBUQUERQUE    PTCLDY    46  20  35 N12       30.14R
DOUBLE EAGLE   CLEAR     37  27  65 NW8       30.13S WCI  31
MORIARTY ARPT  FAIR      37  26  65 SW5       30.13R WCI  34
CLINES CORNERS CLEAR     34  24  67 NW8       30.11R WCI  27
BELEN          FAIR      41  31  65 NE3       30.14R
SOCORRO        FAIR      45  35  69 W5        30.12R

$$
NMZ524>526-539-540-020200-
SOUTHCENTRAL MOUNTAINS

CITY           SKY/WX    TMP DP  RH WIND       PRES   REMARKS
RUIDOSO        CLOUDY    34  32  93 CALM      30.18R

$$
NMZ527>531-020200-
NORTHEAST HIGHLANDS/NORTHEAST PLAINS

CITY           SKY/WX    TMP DP  RH WIND       PRES   REMARKS
LAS VEGAS      FOG       30  29  96 S17       30.10R VSB 1/4 WCI  18
RATON          CLOUDY    33  29  85 S13       30.10R WCI  24
CLAYTON        CLOUDY    30  19  63 NE12      30.18R WCI  20

$$
NMZ532>537-020200-
EASTCENTRAL PLAINS

CITY           SKY/WX    TMP DP  RH WIND       PRES   REMARKS
TUCUMCARI      CLOUDY    40  25  55 E9        30.18R WCI  34
CANNON AFB     CLOUDY    39 N/A N/A E10       30.19R WCI  32
CLOVIS AIRPORT CLOUDY    37  27  65 E12       30.20R WCI  30

$$
NMZ028-029-538-020200-
SOUTHEAST PLAINS

CITY           SKY/WX    TMP DP  RH WIND       PRES   REMARKS
ROSWELL        CLOUDY    48  36  63 CALM      30.17R
ARTESIA        CLOUDY    50  37  62 SE3       30.17S
CARLSBAD       CLOUDY    49  38  65 S3        30.16R
HOBBS          MOCLDY    43  36  75 NE7       30.20R


$$


USA.gov is the U.S. government's official web portal to all federal, state and local government web resources and services.